Other Public Products
Issued by NWS Grand Forks, ND

Home | Current Version | Previous Version | Text Only | Print | Product List | Glossary Off
Versions: 1 2 3 4 5 6 7 8 9 10 11 12 13 14 15 16 17 18 19 20 21 22 23 24 25 26 27 28 29 30 31 32 33 34 35 36 37 38 39 40 41 42 43 44 45 46 47 48 49 50

872
FPUS83 KFGF 310831
OPUFGF
PRAIRIE TO PINES WEATHER ROUNDUP
NATIONAL WEATHER SERVICE EASTERN NORTH DAKOTA/GRAND FORKS ND
300 AM CDT TUE MAY 31 2016

 **SATELLITE DATA USED TO AUGMENT SKY COVER AT AUTOMATED STATIONS**
 *****  WEATHER ACROSS EASTERN NORTH DAKOTA  *****

CITY           SKY/WX    TMP DP  RH WIND       PRES   REMARKS
GRAND FORKS    MOCLDY    60  56  86 E13       29.69F
GRAND FORKS AF NOT AVBL
GRAND CITY NWS   N/A     57 N/A N/A SE18        N/A
BUXTON           N/A    N/A N/A N/A CALM        N/A
DEVILS LAKE    LGT RAIN  58  57  97 SE16G22   29.71F
FARGO          CLOUDY    62  59  90 S5        29.71S
WAHPETON ARPT  CLOUDY    59  55  88 E6        29.72R
$$

 *****  WEATHER ACROSS CENTRAL AND WESTERN NORTH DAKOTA  *****

CITY           SKY/WX    TMP DP  RH WIND       PRES   REMARKS
JAMESTOWN      CLOUDY    57  56  96 SW8       29.71S
BISMARCK       CLOUDY    54  52  93 W16       29.79S
MINOT          CLOUDY    57  54  89 NW10      29.74F
MINOT AFB      DRIZZLE   55  54  94 NW9       29.73F
GARRISON         N/A     54  53  97 NW6       29.76F
WILLISTON      LGT RAIN  50  47  89 W10       29.83F
DICKINSON      PTCLDY    43  40  89 W12       29.84F
HETTINGER      PTCLDY    45  43  93 W12       29.90F
$$

 *****  OTHER OBSERVATIONS NORTHEAST NORTH DAKOTA  *****

CITY           SKY/WX    TMP DP  RH WIND       PRES   REMARKS
WALHALLA       FAIR      57  54  88 E9        29.75F
LANGDON        DRIZZLE   57  57 100 E13       29.72F
CAVALIER       PTSUNNY   59  57  94 E17G24    29.74F FOG
GRAFTON        CLOUDY    59  59 100 NE12G21   29.72F
CANDO          CLOUDY    57  57 100 E14       29.72F FOG
FORT TOTTEN      N/A     57  57 100 SE7       29.95S
ROLLA          RAIN      55  55 100 NE14G20   29.75F
RUGBY          LGT RAIN  55  55 100 N12       29.70F
 ***** THE ABOVE OBSERVATIONS ARE NON NWS ARE NOT QUALITY
        CONTROLLED AND MAY MIS-REPORT RAIN FOR SNOW...
$$

 *****  OTHER OBSERVATIONS SOUTHEAST NORTH DAKOTA *****

CITY           SKY/WX    TMP DP  RH WIND       PRES   REMARKS
COOPERSTOWN    NOT AVBL
VALLEY CITY    CLOUDY    57  57 100 SE3       29.73F
OAKES            N/A    N/A N/A N/A MISG        N/A
GWINNER        CLOUDY    61  57  88 SW5       29.74S
SHEYENNE NWR     N/A     57  56  97 W5        29.95S
BUFFALO          N/A     59  57  91 S7          N/A
WYNDMERE         N/A     59  57  94 SW7         N/A
 ***** THE ABOVE OBSERVATIONS ARE NON NWS ARE NOT QUALITY
       CONTROLLED AND MAY MIS-REPORT RAIN FOR SNOW...
$$

  *****  WEATHER ACROSS NORTHERN MINNESOTA  *****

CITY           SKY/WX    TMP DP  RH WIND       PRES   REMARKS
FLAG ISLAND    CLOUDY    57  46  67 E15G28    29.89R
WARROAD        CLOUDY    57  54  88 E13       29.88S
ROSEAU         LGT RAIN  55  50  82 E8        29.88R
HALLOCK        LGT RAIN  59  55  88 E22G29    29.72F
THF RVR FALLS  CLOUDY    57  54  88 E18G26    29.75F
HALSTAD        NOT AVBL
FOSSTON        RAIN      57  55  94 E10G17    29.78F
BAUDETTE       CLOUDY    57  47  69 E15G23    29.87F
WASKISH        CLOUDY    61  52  72 E14G21    29.86R
CROOKSTON      CLOUDY    59  59 100 E15G28    29.70R
$$
  *****  WEATHER ACROSS CENTRAL AND WEST MINNESOTA  *****

CITY           SKY/WX    TMP DP  RH WIND       PRES   REMARKS
BEMIDJI        CLOUDY    60  56  86 S7        29.86R
PARK RAPIDS    RAIN      61  58  90 S3        29.82S FOG
WADENA         HVY RAIN  57  57 100 CALM      29.81F
DETROIT LAKES  RAIN      59  57  94 E9        29.76F
MOORHEAD       CLOUDY    61  59  94 W7        29.72R
FERGUS FALLS   CLOUDY    61  61 100 E10       29.69F
ELBOW LAKE     FAIR      60  59  96 SE17G24   29.73F
MORRIS MN      CLOUDY    61  59  94 SE14      29.77S
STAPLES        CLOUDY    61  57  88 S3        29.82R
WHEATON        CLOUDY    61  59  94 E12       29.75R
$$
  *****  WEATHER ELSEWHERE ACROSS MINNESOTA  *****

CITY           SKY/WX    TMP DP  RH WIND       PRES   REMARKS
DULUTH         CLOUDY    48  42  80 E28G40    29.97F
INTRNTL FALLS  CLOUDY    55  46  71 E14G22    29.94S
ELY            MOCLDY    50  43  76 E10       30.01F
CLOQUET        CLOUDY    48  41  76 E18G25    29.96S
BRAINERD       CLOUDY    61  57  87 E7        29.84R
HIBBING        CLOUDY    51  44  77 E12       29.95F
ALEXANDRIA     RAIN      60  57  89 N3        29.84R FOG
SAINT CLOUD    CLOUDY    68  56  65 S12       29.82S
MINNEAPOLIS    CLOUDY    68  57  68 SE10      29.85F
$$

  *****  WEATHER ACROSS SOUTH DAKOTA  *****

CITY           SKY/WX    TMP DP  RH WIND       PRES   REMARKS
SIOUX FALLS    LGT RAIN  62  59  90 S3        29.82S
BROOKINGS      LGT RAIN  61  59  93 W9        29.79F
WATERTOWN      CLOUDY    62  57  83 W15       29.78R
HURON          MOCLDY    58  55  90 W12       29.83S
SISSETON         N/A     59  58  96 SW5       29.74R
ABERDEEN       CLOUDY    59  56  89 W9        29.78S
MITCHELL       CLOUDY    61  58  90 W10       29.86R
PIERRE         MOCLDY    54  48  80 W18       29.88R
MOBRIDGE       CLEAR     54  49  83 W16       29.81S
RAPID CITY     MOCLDY    51  33  50 NW13      30.02F
$$

  *****  SOME WEATHER IN NEARBY STATES *****

CITY           SKY/WX    TMP DP  RH WIND       PRES   REMARKS
GLASGOW MT     RAIN      50  48  93 W12       29.89F FOG
GREAT FALLS MT MOCLDY    42  38  85 NW7       30.22S
CHEYENNE WY    CLOUDY    46  40  79 N14G22    30.15F
SCOTTSBLUFF NE LGT RAIN  52  43  71 NW6       30.12S
OMAHA NE       CLOUDY    70  61  73 S12       29.89R
DES MOINES IA  CLOUDY    69  59  70 SE7       29.92S
DAVENPORT IA   PTCLDY    67  63  87 W7        29.96S
CHICAGO IL     MOCLDY    65  55  70 CALM      29.99S
EAU CLAIRE WI  LGT RAIN  64  59  83 SE7       29.95S
LA CROSSE WI   CLOUDY    65  60  84 E7        29.91F
$$

  *****  SOME NATIONAL WEATHER *****

CITY           SKY/WX    TMP DP  RH WIND       PRES   REMARKS
LA GUARDIA NY  CLOUDY    73  67  82 SW5       29.92S
RALEIGH NC     CLOUDY    71  70  96 CALM      29.94R FOG
ATLANTA GA     PTCLDY    74  59  59 N8        29.93S
NEW ORLEANS LA PTCLDY    73  71  93 W3        29.92F
OKLAHOMA CITY  MOCLDY    67  65  93 S6        29.90S
ALBUQUERQUE NM MOCLDY    69  33  26 S7        29.98F
SALT LAKE CITY CLEAR     62  41  46 N5        30.05S
LOS ANGELES CA CLOUDY    59  55  87 W6        29.90F
BOISE ID       CLEAR     58  34  40 CALM      30.07S
SEATTLE WA     MOCLDY    60  43  53 N12       30.18S
$$

*** WEATHER ACROSS MANITOBA...SASKATCHEWAN AND ONTARIO ***
                ***ONTARIO***

CITY           SKY/WX    TMP DP  RH WIND       PRES   REMARKS
GERALDTON      CLEAR     37  36  93 NW2       30.14S
THUNDER BAY    CLEAR     45  41  87 NE5       30.11F
SIOUX LOOKOUT  CLEAR     48  45  87 E5        30.07F
TORONTO        MOCLDY    63  50  63 NW6       29.96S
BIG TROUT LK   CLEAR     32  28  86 NE7       30.23R
PICKLE LAKE    NOT AVBL
DRYDEN         MOCLDY    50  45  81 E12G18    30.04R
KENORA         MOCLDY    54  45  71 E15G22    29.96F
$$
                *** MANITOBA***

CITY           SKY/WX    TMP DP  RH WIND       PRES   REMARKS
BRANDON        LGT RAIN  55  54  94 NE15      29.82S
DAUPHIN        MOCLDY    55  52  88 NE7       29.91S
ISLAND LAKE    NOT AVBL
PILOT MOUND      N/A     57  54  88 E14         N/A
THE PAS        MOCLDY    50  46  87 NE5       30.09S
THOMPSON       PTCLDY    39  34  81 NE6       30.22R
WINNIPEG       LGT RAIN  59  50  72 E16       29.84F
LYNN LAKE      CLOUDY    45  41  87 NE3       30.18S
CHURCHILL      MOCLDY    27  25  93 SE7       30.40S WCI  19
GILLAM         CLEAR     28  28 100 E8        30.30S WCI  20
$$
                ***SASKATCHEWAN***

CITY           SKY/WX    TMP DP  RH WIND       PRES   REMARKS
ESTEVAN        LGT RAIN  54  52  94 N13G18    29.79F FOG
KINDERSLEY     CLOUDY    50  48  93 N15       30.07S
LLOYDMINSTER   CLOUDY    50  48  93 NW10      30.11F
PRINCE ALBERT  CLOUDY    50  48  93 CALM      30.05S
REGINA         NOT AVBL
YORKTON        CLOUDY    52  50  93 N13G18    29.93S   C1F1C2F2C3F3C4F4C5F5C6F6C7F7C8F8C9F9CaFaCbFbCcFcCdFdCe!



USA.gov is the U.S. government's official web portal to all federal, state and local government web resources and services.